Погода в Старом Суркино

Россия / Республика Татарстан     54°44′39″N   52°12′28″E
темп.,
°C
ветер,
м/с
пор.,
м/с
влажн.,
%
обл.,
%
осадки,
мм/ч
давл.,
гПа
погр.,
м
13 мая, чт
чт1300:00+15ююв1152100 0.0 102611
03:00+14вюв225223 0.0 102610
06:00+17юв25545 0.0 1026162
09:00+22ююв57405 0.0 1026949
12:00+25ююв56365 0.0 10261512
15:00+25ююв56375 0.0 10251528
18:00+22ю34555 0.0 102473
21:00+18юв32600 0.0 102421
14 мая, пт
пт1400:00+16юв336523 0.2 102424
03:00+15юв226353 0.2 102516
06:00+18ююв4115677 0.0 1025364
09:00+23ю694385 0.3 1024525
12:00+26ю78325 0.0 10231110
15:00+27ююз693326 0.0 10231481
18:00+23ю494945 0.0 1022211
21:00+19ю33575 0.0 102330
15 мая, сб
сб1500:00+17ю345911 0.0 102250
03:00+16ю335653 0.0 102337
06:00+19ю395528 0.0 1023246
09:00+24ююз683643 0.0 1022536
12:00+27ююз683028 0.0 10221107
15:00+28ююз57305 0.0 10211389
18:00+24ю37485 0.0 1021122
21:00+19ю33480 0.0 102127
16 мая, вс
вс1600:00+18ю33543 0.0 102036
03:00+17ю33545 0.0 102026
06:00+20ю37560 0.0 1020169
09:00+25ююз58390 0.0 1020595
12:00+28ююз57300 0.0 10191836
15:00+29ююз58295 0.0 10183210
18:00+24ю33498 0.0 101746
21:00+19ююз335796 0.0 101834
17 мая, пн
пн1700:00+17ююз3456100 0.0 101852
03:00+18ю3352100 0.0 101940
06:00+20ююз385894 0.0 1018223
09:00+25юз69425 0.0 1019656
12:00+28зюз683325 0.0 10181794
15:00+29зюз573144 0.0 10183150
18:00+25зсз22517 0.0 101737
21:00+18ююз22585 0.6 101920